Weather History for St. George, AK

Change the Weather History Date:

Monday, October 22, 2012

  Actual Average Record
Temperature  
Mean Temperature 36 °F -  
Max Temperature 41 °F 39 °F 45 °F (2004)
Min Temperature 30 °F 32 °F 28 °F (2001)
Degree Days  
Heating Degree Days 30    
Moisture  
Dew Point 36 °F    
Average Humidity 93    
Maximum Humidity 100    
Minimum Humidity 86    
Precipitation  
Precipitation 0.00 in - - ()
Sea Level Pressure  
Sea Level Pressure 30.27 in    
Wind  
Wind Speed 12 mph (East)    
Max Wind Speed 39 mph    
Max Gust Speed 50 mph    
Visibility 10 miles    
Events      
Averages and records for this station are not official NWS values.
T = Trace of Precipitation, MM = Missing Value Source: NWS Daily Summary

Daily Weather History Graph

Daily Weather History Graph

Search for Another Location

Airport:

Trip Planner

Search our weather history database for the weather conditions in past years. The results will help you decide how hot, cold, wet, or windy it might be!

Date:

Astronomy

Oct. 22, 2012 Rise Set
Actual Time 10:07 AM AKDT 7:57 PM AKDT
Civil Twilight 9:28 AM AKDT 8:36 PM AKDT
Nautical Twilight 8:44 AM AKDT 9:20 PM AKDT
Astronomical Twilight 8:00 AM AKDT 10:03 PM AKDT
Moon 5:21 PM AKDT (10/22) 1:53 AM AKDT (10/22)
Length of Visible Light 11h 07m
Length of Day
9h 49m
First Quarter, 58% of the Moon is Illuminated
Oct 22
First Quarter
Oct 29
Full
Nov 6
Last Quarter
Nov 13
New
Nov 20
First Quarter

Hourly Weather History & Observations

Time (AKDT) Temp. Windchill Dew Point Humidity Pressure Visibility Wind Dir Wind Speed Gust Speed Precip Events Conditions
12:53 AM 30.0 °F 26.5 °F 30.0 °F 100% 30.34 in 10.0 mi ENE 3.5 mph - N/A   Clear
1:53 AM 30.9 °F 27.5 °F 30.0 °F 96% 30.34 in 10.0 mi ENE 3.5 mph - N/A   Clear
2:53 AM 30.9 °F 24.3 °F 30.9 °F 100% 30.32 in 10.0 mi ENE 6.9 mph - N/A   Clear
3:53 AM 35.1 °F 26.9 °F 33.1 °F 92% 30.32 in 10.0 mi East 11.5 mph - N/A   Clear
4:53 AM 36.0 °F 28.5 °F 35.1 °F 97% 30.32 in 10.0 mi East 10.4 mph - N/A   Clear
5:17 AM 35.6 °F 29.9 °F 35.6 °F 100% 30.35 in 10.0 mi NE 6.9 mph - N/A   Partly Cloudy
5:53 AM 37.0 °F 28.1 °F 36.0 °F 96% 30.31 in 10.0 mi East 15.0 mph - N/A   Partly Cloudy
6:21 AM 37.4 °F 30.8 °F 37.4 °F 100% 30.34 in 10.0 mi East 9.2 mph - N/A   Mostly Cloudy
6:53 AM 39.0 °F 31.8 °F 37.9 °F 96% 30.31 in 10.0 mi East 11.5 mph - N/A   Overcast
7:53 AM 39.9 °F 33.4 °F 37.9 °F 93% 30.30 in 10.0 mi ESE 10.4 mph - N/A   Overcast
8:53 AM 39.9 °F 33.4 °F 37.0 °F 89% 30.30 in 10.0 mi SE 10.4 mph 17.3 mph N/A   Overcast
9:53 AM 39.9 °F 31.1 °F 37.0 °F 89% 30.30 in 10.0 mi ESE 17.3 mph - N/A   Overcast
10:53 AM 39.9 °F 31.4 °F 37.0 °F 89% 30.31 in 10.0 mi SE 16.1 mph - N/A   Overcast
11:53 AM 41.0 °F 33.1 °F 37.0 °F 86% 30.32 in 10.0 mi ESE 15.0 mph - N/A   Overcast
12:53 PM 39.9 °F 31.4 °F 37.0 °F 89% 30.31 in 10.0 mi ESE 16.1 mph - N/A   Overcast
1:33 PM 39.2 °F 30.8 °F 37.4 °F 93% 30.32 in 10.0 mi East 15.0 mph 26.5 mph N/A   Overcast
1:53 PM 39.9 °F 31.1 °F 37.0 °F 89% 30.27 in 10.0 mi East 17.3 mph 25.3 mph N/A   Overcast
2:53 PM 39.0 °F 30.6 °F 37.0 °F 93% 30.27 in 10.0 mi ESE 15.0 mph 25.3 mph N/A   Overcast
3:53 PM 39.9 °F 28.8 °F 37.0 °F 89% 30.23 in 10.0 mi ESE 27.6 mph 36.8 mph N/A   Overcast
4:53 PM 39.0 °F 28.0 °F 37.0 °F 93% 30.21 in 10.0 mi ESE 25.3 mph 33.4 mph N/A   Overcast
5:53 PM 39.9 °F 29.5 °F 37.0 °F 89% 30.18 in 10.0 mi East 24.2 mph 35.7 mph N/A   Overcast
6:53 PM 39.0 °F 29.3 °F 37.0 °F 93% 30.20 in 10.0 mi ESE 19.6 mph 24.2 mph N/A   Overcast
8:53 PM 39.0 °F 26.6 °F 37.0 °F 93% 30.16 in 10.0 mi East 33.4 mph 42.6 mph 0.00 in   Overcast
10:53 PM 39.0 °F 25.7 °F 37.9 °F 96% 30.11 in 10.0 mi ESE 39.1 mph 49.5 mph N/A   Overcast
11:53 PM 39.0 °F 25.9 °F 37.9 °F 96% 30.11 in 10.0 mi ESE 38.0 mph 48.3 mph N/A   Overcast